Location: Fiddletown
(38.4917°N, 120.6633°W)
Time: 03:12:31
(UTC-08:00)

Envisat - Visible Passes

Search period start: 02 March 2015 00:00
Search period end: 12 March 2015 01:00
Orbit: 765 x 766 km, 98.3° (Epoch: 02 March)

Date Brightness Start Highest point End Pass type
(mag) Time Alt. Az. Time Alt. Az. Time Alt. Az.
03 Mar 5.8 21:23:23 10° NNW 21:23:23 10° NNW 21:23:28 10° NNW visible
04 Mar 5.5 20:46:14 12° N 20:46:14 12° N 20:46:38 10° N visible
05 Mar 5.4 20:09:05 10° NNE 20:09:05 10° NNE 20:09:08 10° NNE visible
06 Mar 5.6 21:12:07 13° N 21:12:07 13° N 21:12:41 10° N visible
07 Mar 5.3 20:34:58 14° N 20:34:58 14° N 20:35:41 10° N visible
08 Mar 5.3 20:57:48 10° NNE 20:57:48 10° NNE 20:57:52 10° NNE visible
08 Mar 5.8 22:38:01 12° NNW 22:38:01 12° NNW 22:38:27 10° NNW visible
09 Mar 5.3 22:00:51 16° N 22:00:51 16° N 22:01:51 10° N visible
10 Mar 5.1 21:23:42 15° NNE 21:23:42 15° NNE 21:24:41 10° NNE visible
10 Mar 6.0 23:03:54 10° NNW 23:03:54 10° NNW 23:03:54 10° NNW visible
11 Mar 5.5 22:26:45 16° NNW 22:26:45 16° NNW 22:27:43 10° NNW visible
